Time,TemperatureF,DewpointF,PressureIn,WindDirection,WindDirectionDegrees,WindSpeedMPH,WindSpeedGustMPH,Humidity,HourlyPrecipIn,Conditions,Clouds,dailyrainin,SolarRadiationWatts/m^2,SoftwareType,DateUTC
2013-07-11 00:00:00,58.5,49.1,29.74,NW,322,0.0,0.0,71,0.00,,,0.00,0,Wunderground v.1.15,2013-07-11 06:00:00,
2013-07-11 00:21:00,57.1,48.9,29.73,NW,321,0.0,0.0,74,0.00,,,0.00,0,Wunderground v.1.15,2013-07-11 06:21:00,
2013-07-11 00:31:00,56.6,48.8,29.73,NW,321,0.0,0.0,75,0.00,,,0.00,0,Wunderground v.1.15,2013-07-11 06:31:00,
2013-07-11 00:40:00,55.9,48.1,29.74,NW,320,0.0,0.0,75,0.00,,,0.00,0,Wunderground v.1.15,2013-07-11 06:40:00,
2013-07-11 00:50:00,55.3,47.9,29.74,NW,307,0.0,3.0,76,0.00,,,0.00,0,Wunderground v.1.15,2013-07-11 06:50:00,
2013-07-11 01:00:00,54.7,47.6,29.74,NW,307,1.0,1.0,77,0.00,,,0.00,0,Wunderground v.1.15,2013-07-11 07:00:00,
2013-07-11 01:10:00,54.2,47.8,29.74,NW,307,1.0,3.0,79,0.00,,,0.00,0,Wunderground v.1.15,2013-07-11 07:10:00,
2013-07-11 01:20:00,53.7,46.7,29.74,NW,307,1.0,1.0,77,0.00,,,0.00,0,Wunderground v.1.15,2013-07-11 07:20:00,
2013-07-11 01:30:00,53.2,46.5,29.74,NW,307,0.0,0.0,78,0.00,,,0.00,0,Wunderground v.1.15,2013-07-11 07:30:00,
2013-07-11 01:41:00,52.9,46.6,29.74,NW,307,0.0,0.0,79,0.00,,,0.00,0,Wunderground v.1.15,2013-07-11 07:41:00,
2013-07-11 01:50:00,52.8,46.5,29.74,NW,307,0.0,0.0,79,0.00,,,0.00,0,Wunderground v.1.15,2013-07-11 07:50:00,
2013-07-11 02:00:00,52.4,46.1,29.74,NW,307,1.0,1.0,79,0.00,,,0.00,0,Wunderground v.1.15,2013-07-11 08:00:00,
2013-07-11 02:10:00,52.4,46.4,29.73,NW,307,2.0,2.0,80,0.00,,,0.00,0,Wunderground v.1.15,2013-07-11 08:10:00,
2013-07-11 02:20:00,52.2,45.9,29.73,NW,307,0.0,0.0,79,0.00,,,0.00,0,Wunderground v.1.15,2013-07-11 08:20:00,
2013-07-11 02:30:00,51.9,45.6,29.73,NW,306,2.0,3.0,79,0.00,,,0.00,0,Wunderground v.1.15,2013-07-11 08:30:00,
2013-07-11 02:40:00,51.8,45.8,29.73,NW,306,2.0,2.0,80,0.00,,,0.00,0,Wunderground v.1.15,2013-07-11 08:40:00,
2013-07-11 02:50:00,51.4,45.4,29.72,NW,306,0.0,0.0,80,0.00,,,0.00,0,Wunderground v.1.15,2013-07-11 08:50:00,
2013-07-11 03:00:00,51.2,45.9,29.73,NW,306,0.0,0.0,82,0.00,,,0.00,0,Wunderground v.1.15,2013-07-11 09:00:00,
2013-07-11 03:10:00,51.3,46.0,29.72,NW,306,0.0,0.0,82,0.00,,,0.00,0,Wunderground v.1.15,2013-07-11 09:10:00,
2013-07-11 03:20:00,51.2,45.9,29.72,NW,306,1.0,3.0,82,0.00,,,0.00,0,Wunderground v.1.15,2013-07-11 09:20:00,
2013-07-11 03:30:00,51.1,45.5,29.72,NW,306,2.0,2.0,81,0.00,,,0.00,0,Wunderground v.1.15,2013-07-11 09:30:00,
2013-07-11 03:40:00,50.8,45.5,29.72,NW,306,1.0,3.0,82,0.00,,,0.00,0,Wunderground v.1.15,2013-07-11 09:40:00,
2013-07-11 03:50:00,50.8,44.9,29.72,NW,306,3.0,3.0,80,0.00,,,0.00,0,Wunderground v.1.15,2013-07-11 09:50:00,
2013-07-11 04:00:00,50.5,44.6,29.71,NW,306,3.0,3.0,80,0.00,,,0.00,0,Wunderground v.1.15,2013-07-11 10:00:00,
2013-07-11 04:11:00,50.4,44.5,29.71,NW,306,3.0,4.0,80,0.00,,,0.00,0,Wunderground v.1.15,2013-07-11 10:11:00,
2013-07-11 04:20:00,50.8,44.5,29.70,NW,306,3.0,4.0,79,0.00,,,0.00,0,Wunderground v.1.15,2013-07-11 10:20:00,
2013-07-11 04:30:00,50.7,44.1,29.70,NW,306,3.0,3.0,78,0.00,,,0.00,0,Wunderground v.1.15,2013-07-11 10:30:00,
2013-07-11 04:41:00,50.3,43.7,29.70,NW,306,1.0,2.0,78,0.00,,,0.00,0,Wunderground v.1.15,2013-07-11 10:41:00,
2013-07-11 05:00:00,50.3,43.7,29.70,NW,306,0.0,0.0,78,0.00,,,0.00,0,Wunderground v.1.15,2013-07-11 11:00:00,
2013-07-11 05:10:00,50.1,43.2,29.71,NW,306,1.0,1.0,77,0.00,,,0.00,0,Wunderground v.1.15,2013-07-11 11:10:00,
2013-07-11 05:20:00,50.0,43.1,29.70,NW,306,0.0,0.0,77,0.00,,,0.00,0,Wunderground v.1.15,2013-07-11 11:20:00,
2013-07-11 05:30:00,49.8,43.2,29.71,NW,306,1.0,1.0,78,0.00,,,0.00,0,Wunderground v.1.15,2013-07-11 11:30:00,
2013-07-11 05:40:00,49.7,42.8,29.71,NW,306,1.0,1.0,77,0.00,,,0.00,0,Wunderground v.1.15,2013-07-11 11:40:00,
2013-07-11 05:50:00,49.7,42.8,29.71,NW,305,1.0,4.0,77,0.00,,,0.00,9,Wunderground v.1.15,2013-07-11 11:50:00,
2013-07-11 06:00:00,49.8,43.2,29.71,WNW,295,3.0,3.0,78,0.00,,,0.00,16,Wunderground v.1.15,2013-07-11 12:00:00,
2013-07-11 06:10:00,50.2,43.6,29.71,WNW,296,3.0,3.0,78,0.00,,,0.00,23,Wunderground v.1.15,2013-07-11 12:10:00,
2013-07-11 06:20:00,50.6,44.0,29.71,WNW,296,1.0,1.0,78,0.00,,,0.00,30,Wunderground v.1.15,2013-07-11 12:20:00,
2013-07-11 06:30:00,51.7,45.4,29.71,WNW,287,0.0,0.0,79,0.00,,,0.00,35,Wunderground v.1.15,2013-07-11 12:30:00,
2013-07-11 06:40:00,52.7,46.4,29.71,WNW,290,0.0,0.0,79,0.00,,,0.00,40,Wunderground v.1.15,2013-07-11 12:40:00,
2013-07-11 06:50:00,53.9,47.5,29.71,West,280,0.0,0.0,79,0.00,,,0.00,47,Wunderground v.1.15,2013-07-11 12:50:00,
2013-07-11 07:10:00,56.4,50.0,29.70,WNW,298,0.0,0.0,79,0.00,,,0.00,72,Wunderground v.1.15,2013-07-11 13:10:00,
2013-07-11 07:20:00,57.7,50.2,29.70,WNW,298,0.0,0.0,76,0.00,,,0.00,186,Wunderground v.1.15,2013-07-11 13:20:00,
2013-07-11 07:30:00,59.5,50.8,29.70,WNW,298,0.0,0.0,73,0.00,,,0.00,265,Wunderground v.1.15,2013-07-11 13:30:00,
2013-07-11 07:40:00,61.2,51.7,29.69,WNW,298,0.0,0.0,71,0.00,,,0.00,295,Wunderground v.1.15,2013-07-11 13:40:00,
2013-07-11 07:50:00,62.7,53.2,29.69,WNW,298,0.0,0.0,71,0.00,,,0.00,325,Wunderground v.1.15,2013-07-11 13:50:00,
2013-07-11 08:00:00,64.9,55.3,29.68,WNW,298,0.0,0.0,71,0.00,,,0.00,364,Wunderground v.1.15,2013-07-11 14:00:00,
2013-07-11 08:10:00,67.0,52.2,29.68,WNW,297,0.0,0.0,59,0.00,,,0.00,415,Wunderground v.1.15,2013-07-11 14:10:00,
2013-07-11 08:31:00,69.5,54.5,29.67,WNW,296,0.0,0.0,59,0.00,,,0.00,338,Wunderground v.1.15,2013-07-11 14:31:00,
2013-07-11 08:41:00,70.7,54.2,29.67,WNW,296,0.0,0.0,56,0.00,,,0.00,534,Wunderground v.1.15,2013-07-11 14:41:00,
2013-07-11 09:00:00,72.8,50.2,29.67,SSE,153,1.0,1.0,45,0.00,,,0.00,573,Wunderground v.1.15,2013-07-11 15:00:00,
2013-07-11 09:10:00,73.7,53.3,29.66,SE,134,1.0,1.0,49,0.00,,,0.00,599,Wunderground v.1.15,2013-07-11 15:10:00,
2013-07-11 09:30:00,73.9,50.0,29.66,East,88,5.0,5.0,43,0.00,,,0.00,640,Wunderground v.1.15,2013-07-11 15:30:00,
2013-07-11 09:50:00,76.4,43.5,29.65,SE,129,6.0,6.0,31,0.00,,,0.00,705,Wunderground v.1.15,2013-07-11 15:50:00,
2013-07-11 10:00:00,77.5,43.6,29.65,WSW,238,5.0,14.0,30,0.00,,,0.00,733,Wunderground v.1.15,2013-07-11 16:00:00,
2013-07-11 10:10:00,77.6,44.6,29.65,WSW,248,10.0,10.0,31,0.00,,,0.00,751,Wunderground v.1.15,2013-07-11 16:10:00,
2013-07-11 10:30:00,79.1,39.2,29.64,West,267,7.0,11.0,24,0.00,,,0.00,816,Wunderground v.1.15,2013-07-11 16:30:00,
2013-07-11 10:40:00,79.6,39.6,29.64,SSW,206,8.0,8.0,24,0.00,,,0.00,833,Wunderground v.1.15,2013-07-11 16:40:00,
2013-07-11 10:50:00,80.9,40.7,29.64,WSW,250,6.0,6.0,24,0.00,,,0.00,858,Wunderground v.1.15,2013-07-11 16:50:00,
2013-07-11 11:00:00,81.8,38.0,29.64,SW,232,3.0,4.0,21,0.00,,,0.00,870,Wunderground v.1.15,2013-07-11 17:00:00,
2013-07-11 11:10:00,82.4,37.3,29.64,SSW,203,5.0,12.0,20,0.00,,,0.00,893,Wunderground v.1.15,2013-07-11 17:10:00,
2013-07-11 11:30:00,83.3,39.3,29.64,WSW,244,3.0,14.0,21,0.00,,,0.00,925,Wunderground v.1.15,2013-07-11 17:30:00,
2013-07-11 11:40:00,83.1,39.1,29.63,SW,223,6.0,6.0,21,0.00,,,0.00,921,Wunderground v.1.15,2013-07-11 17:40:00,
2013-07-11 11:50:00,83.8,39.7,29.63,SW,224,6.0,12.0,21,0.00,,,0.00,958,Wunderground v.1.15,2013-07-11 17:50:00,
2013-07-11 12:01:00,84.5,41.5,29.62,SW,223,5.0,7.0,22,0.00,,,0.00,979,Wunderground v.1.15,2013-07-11 18:01:00,
2013-07-11 12:10:00,85.1,39.5,29.62,SW,219,5.0,6.0,20,0.00,,,0.00,1034,Wunderground v.1.15,2013-07-11 18:10:00,
2013-07-11 12:20:00,85.0,39.4,29.62,SSE,165,5.0,5.0,20,0.00,,,0.00,1028,Wunderground v.1.15,2013-07-11 18:20:00,
2013-07-11 12:30:00,85.3,39.7,29.61,SSE,150,8.0,9.0,20,0.00,,,0.00,1067,Wunderground v.1.15,2013-07-11 18:30:00,
2013-07-11 12:40:00,85.3,37.0,29.61,SW,219,9.0,9.0,18,0.00,,,0.00,1127,Wunderground v.1.15,2013-07-11 18:40:00,
2013-07-11 13:10:00,85.5,41.1,29.61,SW,221,5.0,5.0,21,0.00,,,0.00,1197,Wunderground v.1.15,2013-07-11 19:10:00,
2013-07-11 13:20:00,84.9,44.1,29.61,WSW,238,4.0,9.0,24,0.00,,,0.00,360,Wunderground v.1.15,2013-07-11 19:20:00,
2013-07-11 13:30:00,84.5,40.3,29.61,South,190,7.0,9.0,21,0.00,,,0.00,1141,Wunderground v.1.15,2013-07-11 19:30:00,
2013-07-11 13:50:00,85.8,42.6,29.60,South,181,6.0,7.0,22,0.00,,,0.00,1074,Wunderground v.1.15,2013-07-11 19:50:00,
2013-07-11 14:00:00,86.7,39.5,29.59,West,261,3.0,7.0,19,0.00,,,0.00,313,Wunderground v.1.15,2013-07-11 20:00:00,
2013-07-11 14:10:00,87.1,42.4,29.59,ESE,108,2.0,2.0,21,0.00,,,0.00,1079,Wunderground v.1.15,2013-07-11 20:10:00,
2013-07-11 14:20:00,87.8,44.2,29.58,South,184,3.0,3.0,22,0.00,,,0.00,1048,Wunderground v.1.15,2013-07-11 20:20:00,
2013-07-11 14:30:00,87.7,49.6,29.57,South,182,4.0,7.0,27,0.00,,,0.00,1056,Wunderground v.1.15,2013-07-11 20:30:00,
2013-07-11 14:40:00,87.5,42.8,29.57,SSE,166,7.0,7.0,21,0.00,,,0.00,810,Wunderground v.1.15,2013-07-11 20:40:00,
2013-07-11 15:00:00,84.3,45.7,29.57,SSW,207,2.0,2.0,26,0.00,,,0.00,893,Wunderground v.1.15,2013-07-11 21:00:00,
2013-07-11 15:10:00,86.3,40.5,29.56,SSW,201,5.0,5.0,20,0.00,,,0.00,963,Wunderground v.1.15,2013-07-11 21:10:00,
2013-07-11 15:20:00,87.4,40.1,29.56,West,263,7.0,7.0,19,0.00,,,0.00,939,Wunderground v.1.15,2013-07-11 21:20:00,
2013-07-11 15:30:00,86.9,39.7,29.56,South,181,4.0,4.0,19,0.00,,,0.00,737,Wunderground v.1.15,2013-07-11 21:30:00,
2013-07-11 15:40:00,85.9,43.8,29.55,SW,219,4.0,7.0,23,0.00,,,0.00,271,Wunderground v.1.15,2013-07-11 21:40:00,
2013-07-11 15:50:00,86.3,41.8,29.55,SSW,212,3.0,3.0,21,0.00,,,0.00,861,Wunderground v.1.15,2013-07-11 21:50:00,
2013-07-11 16:00:00,87.5,38.8,29.54,West,266,6.0,11.0,18,0.00,,,0.00,882,Wunderground v.1.15,2013-07-11 22:00:00,
2013-07-11 16:20:00,87.5,44.0,29.54,SSE,162,1.0,1.0,22,0.00,,,0.00,847,Wunderground v.1.15,2013-07-11 22:20:00,
2013-07-11 16:40:00,85.1,40.8,29.53,SSW,208,7.0,7.0,21,0.00,,,0.00,236,Wunderground v.1.15,2013-07-11 22:40:00,
2013-07-11 16:50:00,85.1,40.8,29.53,SE,142,7.0,7.0,21,0.00,,,0.00,403,Wunderground v.1.15,2013-07-11 22:50:00,
2013-07-11 17:10:00,85.7,38.7,29.52,SSW,193,4.0,4.0,19,0.00,,,0.00,668,Wunderground v.1.15,2013-07-11 23:10:00,
2013-07-11 17:21:00,86.5,43.1,29.52,South,186,2.0,5.0,22,0.00,,,0.00,608,Wunderground v.1.15,2013-07-11 23:21:00,
2013-07-11 17:40:00,87.4,40.1,29.51,WSW,247,5.0,5.0,19,0.00,,,0.00,577,Wunderground v.1.15,2013-07-11 23:40:00,
2013-07-11 17:50:00,86.9,41.0,29.51,SSW,211,5.0,5.0,20,0.00,,,0.00,489,Wunderground v.1.15,2013-07-11 23:50:00,
2013-07-11 18:00:00,86.3,36.3,29.51,West,259,4.0,4.0,17,0.00,,,0.00,441,Wunderground v.1.15,2013-07-12 00:00:00,
2013-07-11 18:20:00,86.0,38.9,29.50,NE,44,1.0,1.0,19,0.00,,,0.00,420,Wunderground v.1.15,2013-07-12 00:20:00,
2013-07-11 18:50:00,83.1,39.1,29.50,WNW,284,1.0,4.0,21,0.00,,,0.00,193,Wunderground v.1.15,2013-07-12 00:50:00,
2013-07-11 19:00:00,81.4,47.9,29.50,WNW,299,4.0,4.0,31,0.00,,,0.00,146,Wunderground v.1.15,2013-07-12 01:00:00,
2013-07-11 19:10:00,79.8,50.5,29.50,WNW,296,1.0,1.0,36,0.00,,,0.00,70,Wunderground v.1.15,2013-07-12 01:10:00,
2013-07-11 19:20:00,77.8,42.1,29.50,North,355,5.0,8.0,28,0.00,,,0.00,44,Wunderground v.1.15,2013-07-12 01:20:00,
2013-07-11 19:30:00,75.9,44.7,29.50,WNW,300,3.0,4.0,33,0.00,,,0.00,47,Wunderground v.1.15,2013-07-12 01:30:00,
2013-07-11 19:50:00,76.1,39.7,29.50,West,269,8.0,8.0,27,0.00,,,0.00,35,Wunderground v.1.15,2013-07-12 01:50:00,
2013-07-11 20:20:00,75.4,40.9,29.50,WNW,289,8.0,8.0,29,0.00,,,0.00,9,Wunderground v.1.15,2013-07-12 02:20:00,
2013-07-11 20:30:00,74.7,40.3,29.51,West,275,10.0,13.0,29,0.00,,,0.00,0,Wunderground v.1.15,2013-07-12 02:30:00,
2013-07-11 21:10:00,73.5,40.2,29.52,West,268,12.0,12.0,30,0.00,,,0.00,0,Wunderground v.1.15,2013-07-12 03:10:00,
2013-07-11 21:30:00,73.2,39.9,29.53,WSW,258,11.0,11.0,30,0.00,,,0.00,0,Wunderground v.1.15,2013-07-12 03:30:00,
2013-07-11 21:40:00,73.1,39.8,29.54,West,265,11.0,12.0,30,0.00,,,0.00,0,Wunderground v.1.15,2013-07-12 03:40:00,
2013-07-11 21:50:00,73.3,40.0,29.54,WSW,242,10.0,14.0,30,0.00,,,0.00,0,Wunderground v.1.15,2013-07-12 03:50:00,
2013-07-11 22:00:00,73.8,40.4,29.54,NW,317,9.0,9.0,30,0.00,,,0.00,0,Wunderground v.1.15,2013-07-12 04:00:00,
2013-07-11 22:20:00,74.9,41.4,29.54,NE,45,2.0,4.0,30,0.00,,,0.00,0,Wunderground v.1.15,2013-07-12 04:20:00,
2013-07-11 22:40:00,72.7,43.5,29.57,South,182,10.0,10.0,35,0.00,,,0.00,0,Wunderground v.1.15,2013-07-12 04:40:00,
2013-07-11 22:50:00,71.6,44.6,29.57,South,170,12.0,12.0,38,0.00,,,0.00,0,Wunderground v.1.15,2013-07-12 04:50:00,
2013-07-11 23:00:00,70.8,44.6,29.57,SSW,192,9.0,9.0,39,0.00,,,0.00,0,Wunderground v.1.15,2013-07-12 05:00:00,
2013-07-11 23:20:00,71.0,44.1,29.56,SSW,213,9.0,10.0,38,0.00,,,0.00,0,Wunderground v.1.15,2013-07-12 05:20:00,
2013-07-11 23:30:00,71.3,43.7,29.57,SSW,207,8.0,8.0,37,0.00,,,0.00,0,Wunderground v.1.15,2013-07-12 05:30:00,
2013-07-11 23:40:00,71.2,43.6,29.57,SSE,157,7.0,9.0,37,0.00,,,0.00,0,Wunderground v.1.15,2013-07-12 05:40:00,
2013-07-11 23:50:00,70.9,43.3,29.57,South,185,8.0,8.0,37,0.00,,,0.00,0,Wunderground v.1.15,2013-07-12 05:50:00,